Retour au catalogue

GORIZONT 1

ActifCommunicationsHEO
NORAD 11158·PAYLOAD·🇷🇺 Russia

Lancé Dec 19, 1978 depuis Baikonur Cosmodrome

Loading…

Prochains Passages (prochaines 24 heures)

TLE

FraisSource: Space-Track

Époque: Sep 13, 2026, 06:07 UTC

1 11158U 78118A   26256.25509103 -.00000137  00000-0  00000-0 0  9999
2 11158  12.4609 151.7840 3038708   4.0731 358.0763  1.00232562123829

Suivez GORIZONT 1 en temps réel avec AllMySat

Download on the App Store